Weather History for KNXP - July, 2013

Change the Weather History Date:

Thursday, July 18, 2013

  Actual Average Record
Temperature  
Mean Temperature 92 °F -  
Max Temperature 107 °F 99 °F 118 °F (2005)
Min Temperature 77 °F 75 °F 66 °F (2012)
Cooling Degree Days 26    
Growing Degree Days 42 (Base 50)    
Moisture  
Dew Point 24 °F    
Average Humidity 9    
Maximum Humidity 14    
Minimum Humidity 6    
Precipitation  
Precipitation 0.00 in - - ()
Sea Level Pressure  
Sea Level Pressure 29.86 in    
Wind  
Wind Speed 6 mph (WNW)    
Max Wind Speed 13 mph    
Max Gust Speed -    
Visibility 10 miles    
Events      
Averages and records for this station are not official NWS values.
T = Trace of Precipitation, MM = Missing Value Source: NWS Daily Summary

Daily Weather History Graph

Daily Weather History Graph

Search for Another Location

Airport or City:

Trip Planner

Search our weather history database for the weather conditions in past years. The results will help you decide how hot, cold, wet, or windy it might be!

Date:

Astronomy

Jul. 18, 2013 Rise Set
Actual Time 5:45 AM PDT 7:55 PM PDT
Civil Twilight 5:17 AM PDT 8:23 PM PDT
Nautical Twilight 4:42 AM PDT 8:58 PM PDT
Astronomical Twilight 4:05 AM PDT 9:35 PM PDT
Moon 3:58 PM PDT (7/18) 1:37 AM PDT (7/18)
Length of Visible Light 15h 06m
Length of Day
14h 09m
Waxing Gibbous, 78% of the Moon is Illuminated
Jul 18
Waxing Gibbous
Jul 22
Full
Jul 29
Last Quarter
Aug 6
New
Aug 14
First Quarter

Hourly Weather History & Observations

Time (PDT) Temp. Dew Point Humidity Pressure Visibility Wind Dir Wind Speed Gust Speed Precip Events Conditions
12:56 AM 84.0 °F 21.0 °F 10% 29.92 in 10.0 mi NNW 6.9 mph - N/A   Clear
1:56 AM 82.0 °F 24.1 °F 12% 29.91 in 10.0 mi WNW 9.2 mph - N/A   Clear
2:56 AM 82.0 °F 25.0 °F 12% 29.90 in 10.0 mi West 9.2 mph - N/A   Clear
3:56 AM 79.0 °F 25.0 °F 14% 29.90 in 10.0 mi NW 4.6 mph - N/A   Clear
4:56 AM 78.1 °F 24.1 °F 14% 29.90 in 10.0 mi WNW 6.9 mph - N/A   Clear
5:56 AM 77.0 °F 23.0 °F 13% 29.92 in 10.0 mi WNW 4.6 mph - N/A   Clear
6:56 AM 79.0 °F 21.9 °F 12% 29.93 in 7.0 mi WNW 4.6 mph - N/A   Clear
7:56 AM 84.9 °F 21.0 °F 10% 29.94 in 10.0 mi Calm Calm - N/A   Scattered Clouds
8:56 AM 89.6 °F 21.2 °F 8% 29.94 in 10.0 mi NNW 3.5 mph - N/A   Scattered Clouds
9:56 AM 93.2 °F 19.4 °F 7% 29.92 in 10.0 mi North 4.6 mph - N/A   Scattered Clouds
10:56 AM 96.8 °F 19.4 °F 6% 29.92 in 10.0 mi North 4.6 mph - N/A   Scattered Clouds
11:56 AM 100.4 °F 24.8 °F 7% 29.90 in 10.0 mi Variable 3.5 mph - N/A   Scattered Clouds
12:56 PM 102.2 °F 26.6 °F 7% 29.88 in 10.0 mi East 6.9 mph - N/A   Scattered Clouds
1:56 PM 102.2 °F 26.6 °F 7% 29.86 in 10.0 mi Calm Calm - N/A   Scattered Clouds
2:56 PM 105.8 °F 26.6 °F 6% 29.82 in 10.0 mi Variable 4.6 mph - N/A   Scattered Clouds
3:56 PM 105.8 °F 26.6 °F 6% 29.79 in 10.0 mi South 5.8 mph - N/A   Scattered Clouds
4:56 PM 104.0 °F 25.0 °F 6% 29.77 in 10.0 mi Variable 3.5 mph - N/A   Partly Cloudy
5:56 PM 106.0 °F 25.0 °F 6% 29.76 in 10.0 mi ENE 4.6 mph - N/A   Partly Cloudy
6:56 PM 104.0 °F 26.1 °F 6% 29.76 in 10.0 mi Calm Calm - N/A   Partly Cloudy
7:56 PM 100.9 °F 25.0 °F 7% 29.78 in 10.0 mi SW 10.4 mph - N/A   Scattered Clouds
8:56 PM 96.1 °F 24.1 °F 8% 29.79 in 10.0 mi SW 12.7 mph - N/A   Scattered Clouds
9:56 PM 95.0 °F 28.0 °F 9% 29.81 in 10.0 mi Calm Calm - N/A   Clear
10:56 PM 91.9 °F 25.0 °F 9% 29.82 in 10.0 mi WSW 8.1 mph - N/A   Partly Cloudy
11:56 PM 91.0 °F 23.0 °F 8% 29.82 in 10.0 mi WNW 6.9 mph - N/A   Clear